Andover, NJ

7:51 AM EST on December 07, 2019 (GMT -0500)
Andover

Weather History for K12N - September, 2019

Change the Weather History Date:

Monday, September 16, 2019

  Actual Average (KFWN) Record (KFWN)
Temperature  
Mean Temperature 66 °F -  
Max Temperature 75 °F 72 °F 87 °F (1993)
Min Temperature 60 °F 47 °F 31 °F (1964)
Cooling Degree Days 2    
Growing Degree Days 16 (Base 50)    
Moisture  
Dew Point 62 °F    
Average Humidity 88    
Maximum Humidity 97    
Minimum Humidity 68    
Precipitation  
Precipitation 0.00 in - - ()
Sea Level Pressure  
Sea Level Pressure 30.06 in    
Wind  
Wind Speed 0 mph (ENE)    
Max Wind Speed 5 mph    
Max Gust Speed -    
Averages and records for this station are not official NWS values.
T = Trace of Precipitation, MM = Missing Value Source: NWS Daily Summary

Daily Weather History Graph

Daily Weather History Graph

Search for Another Location

Airport or City:

Astronomy

Sep. 16, 2019 Rise Set
Actual Time 6:40 AM EDT 7:06 PM EDT
Civil Twilight 6:12 AM EDT 7:34 PM EDT
Nautical Twilight 5:40 AM EDT 8:06 PM EDT
Astronomical Twilight 5:06 AM EDT 8:39 PM EDT
Moon 8:39 PM EDT (9/16) 8:45 AM EDT (9/16)
Length of Visible Light 13h 21m
Length of Day
12h 26m
Waning Gibbous, 94% of the Moon is Illuminated
Sep 16
Waning Gibbous
Sep 21
Last Quarter
Sep 28
New
Oct 5
First Quarter
Oct 13
Full

Hourly Weather History & Observations

Time (EDT) Temp. Dew Point Humidity Pressure Visibility Wind Dir Wind Speed Gust Speed Precip Events Conditions
12:54 AM 60.1 °F 59.0 °F 96% 30.08 in - Calm Calm - N/A   Unknown
1:54 AM 61.0 °F 60.1 °F 97% 30.07 in - Calm Calm - N/A   Unknown
2:54 AM 62.1 °F 60.1 °F 93% 30.06 in - Calm Calm - N/A   Unknown
3:54 AM 62.1 °F 61.0 °F 96% 30.07 in - Calm Calm - N/A   Unknown
4:54 AM 62.1 °F 61.0 °F 96% 30.07 in - Calm Calm - N/A   Unknown
5:54 AM 63.0 °F 61.0 °F 93% 30.06 in - Calm Calm - N/A   Unknown
6:54 AM 63.0 °F 61.0 °F 93% 30.09 in - Calm Calm - N/A   Unknown
7:54 AM 63.0 °F 62.1 °F 97% 30.09 in - Calm Calm - N/A   Unknown
8:54 AM 64.9 °F 63.0 °F 93% 30.09 in - Calm Calm - N/A   Unknown
9:54 AM 68.0 °F 62.1 °F 81% 30.08 in - Calm Calm - N/A   Unknown
10:54 AM 73.0 °F 62.1 °F 68% 30.08 in - Variable 4.6 mph - N/A   Unknown
11:54 AM 71.1 °F 63.0 °F 75% 30.07 in - Variable 3.5 mph - N/A   Unknown
12:54 PM 72.0 °F 63.0 °F 73% 30.06 in - Variable 4.6 mph - N/A   Unknown
1:54 PM 72.0 °F 63.0 °F 73% 30.05 in - ENE 3.5 mph - N/A   Unknown
2:54 PM 72.0 °F 63.0 °F 73% 30.04 in - Calm Calm - N/A   Unknown
4:54 PM 72.0 °F 66.0 °F 81% 30.01 in - Calm Calm - N/A   Unknown
5:54 PM 70.0 °F 66.0 °F 87% 30.02 in - Calm Calm - N/A   Unknown
6:54 PM 66.9 °F 64.9 °F 93% 30.02 in - Calm Calm - N/A   Unknown
7:54 PM 64.9 °F 63.0 °F 93% 30.04 in - Calm Calm - N/A   Unknown
8:54 PM 63.0 °F 62.1 °F 97% 30.05 in - Calm Calm - N/A   Unknown
9:54 PM 62.1 °F 60.1 °F 93% 30.05 in - Calm Calm - N/A   Unknown
10:54 PM 60.1 °F 59.0 °F 96% 30.06 in - Calm Calm - N/A   Unknown
11:54 PM 61.0 °F 60.1 °F 97% 30.07 in - Calm Calm - N/A   Unknown